STARLINK-32169

Last updated on Fri Sep 20 2024 00:02:03 GMT+0000 (Coordinated Universal Time)

1 60589U 24150G 24263.25148698 .00000201 00000+0 15034-4 0 9999 2 60589 53.1607 281.3304 0001568 38.5662 321.5455 15.39596002 5878
UTC large
Height (km)
Speed (km/s)
/
Latitude / Longitude
Inclination (degrees)
Orbital Period (minutes)
Azimuth
Elevation
Range (km)
Doppler Factor

Next 0 passes for location: London (51.5072 / 0.1276)

Sorry there are no passes over London.